User: anonymous   Login
Location: Unspecified
(0.0000°N, 0.0000°E)
Time: 11:22:52
(UTC+02:00)
Language:

Cosmos 1758 - Orbit

View from above orbital plane
View from above orbital plane
View from above satellite
View from above satellite

Ground track
Ground track

The orbit data is extracted from the following two-line orbital elements,

1 16791U 86046A   15089.15353031  .00003809  00000-0  28299-3 0  9995
2 16791 082.4679 100.5244 0016130 329.2563 030.7715 15.02659598563949
Epoch (UTC): 30 March 2015 03:41:05
Eccentricity: 0.0016130
inclination: 82.4679°
perigee height: 547 km
apogee height: 570 km
right ascension of ascending node: 100.5244°
argument of perigee: 329.2563°
revolutions per day: 15.02659598
mean anomaly at epoch: 30.7715°
orbit number at epoch: 56394

The dashed part of the orbit path shows where the satellite is in the earth's shadow,  

DLR